Find Starlink 34491

NORAD ID: 64780 Int'l Des: 2025-147 Owner: SPXS Country: US Constellation: starlink operational
LEOCIRCULAR

Current View

Loading 3D Globe...

About Starlink 34491

Description loading...

Upcoming Passes

Passes for default location (London). Set your location on the main map for personalized predictions.

Altitude History

Loading altitude history...

Two-Line Element Set

1 64780U 25147AB 26149.46594380 .00028014 00000-0 83726-3 0 9999
2 64780 53.1605 226.5068 0000879 62.2686 297.8405 15.34395912 51137
Epoch: May 29, 2026 • Age: 17 hours

Current Status

Altitude 481.1 km
Velocity 7.62 km/s
Sub-Earth Point -51.86°S, 156.6°W
Launch Date Jul 8, 2025
Age 0.8 years
Type internet

Technical Details

Classification Payload
Mass 575.00 kg
Dry Mass 530.00 kg
Total Mass 575.00 kg
Length 0.30 m
Diameter 4.10 m
Span 29.00 m
Shape Box + pan
Manufacturer SPXS
Bus Type Starlink V2MO
Phase Status In Orbit
Owner/State SPXS/US

Most Searched